SPHEREX DEB, 63332

Orbit data source: Space-Track

SPHEREX DEB, 63332 is space debris in SSO originally from a launch on Wed, 12 Mar 2025 UTC launched from the Air Force Western Test Range (AFWTR). Debris objects in space refer to the collection of defunct objects orbiting the Earth. Examples of debris include non-operational satellites, rocket bodies, and fragments generated from explosions, collisions, or faulty payload assembly.

Loading next visibility...
Identifier
63332, 2025-047F
Orbit
SSO
Country
Flag of USUS
Related business
Manufacturer
BAEB
Mission
Spacecraft
Bus & Motor
SPHEREX, Unknown motor
Mass
~5 kg wet, ~5 kg dry
Launch date (UTC)
2025-03-12 (6 months ago)
Launch vehicle
Unknown
Launch site
Air Force Western Test Range (AFWTR)
Object type
Payload
Rocket body
Debris
Shape & HBR
Cyl, 0.3 m
Radar Cross Section
0.247 m², Medium (>0.1 m² and < 1m²)

Expand to show TLE details & history
Last TLE update: 19 hours ago

TLE from 19 hours ago
0 SPHEREX DEB
1 63332U 25047F   25257.50264760  .00005087  00000-0  74696-3 0  9991
2 63332  97.9559  83.0812 0007815 348.9323  11.1713 14.75917122 26379
Epoch: 2025-09-14T12:03Z
TLE epoch observation values (Epoch: 2025-09-14T12:03:48.752Z)
Latitude
-0.00007°
Longitude
-91.59265°
Altitude
639.872 km
Speed
7.541 km/s
True Right ascension
05h 32m 19s
True Declination
0° 00' 00"
Sunlit
Object was in daylight at epoch
Visualization orbit readout
Latitude
Unknown
Longitude
Unknown
Altitude
Unknown
Speed
Unknown
Apparent Right ascension
Unknown
Apparent Declination
Unknown
Sunlit
N/A
Visualization observer readout
Local Sidereal Time
23:27:12
Azimuth
Unknown
Elevation
Unknown
Doppler factor
Unknown
Orbital elements
Apogee altitude
644.774 km
Perigee altitude
633.806 km
Semi-major axis
7,017.427 km
Eccentricity
0.00078
Inclination
97.9559°
RAAN
83.0812°
Arg. of periapsis
348.9323°
True anomaly
11.18867°
Mean anomaly
11.1713°
Eccentric anomaly
11.17998°
Mean motion
3.69212 °/min
Orbital period
97.5 mins
BSTAR
0.00074696
Loading maneuver chart data...
Computing Atmospheric mass density...
Loading historical data...
Loading historical data...
Loading historical data...
Loading historical data...
Loading historical data...
Loading historical data...
Loading historical data...
Other satellites on launch #47 in the year 2025 (2025-03-12 UTC)

Documentation

Showing up to 5 results
|